GW1804 Weather Reports


time (UTC)temp
C
wind
direction
speed
KPH
gust
KPH
rain 1hr
cm
rain 24hr
cm
rain mn
cm
humidity
%
barometer
mb
20260506062033 15 0 0.0 0.0 0.00 0.51 0.51 78 1017.4
20260506061544 15 0 0.0 0.0 0.00 0.51 0.51 79 1017.4
20260506061033 15 0 0.0 0.0 0.00 0.51 0.51 78 1017.5
20260506060534 15 0 0.0 0.0 0.00 0.51 0.51 78 1017.5
20260506051032 15 0 0.0 0.0 0.00 0.51 0.51 77 1017.3
20260506050533 15 0 0.0 0.0 0.00 0.51 0.51 77 1017.3
20260506045032 15 0 0.0 3.2 0.00 0.51 0.51 78 1017.1
20260506044551 15 0 0.0 3.2 0.00 0.51 0.51 78 1017.0
20260506044034 15 0 0.0 3.2 0.00 0.51 0.51 78 1017.0
20260506043536 15 0 0.0 3.2 0.00 0.51 0.51 78 1016.9
20260506043049 15 0 0.0 4.8 0.00 0.51 0.51 78 1016.9
20260506042532 15 282 0.0 4.8 0.00 0.51 0.51 78 1016.9
20260506042033 15 306 1.6 4.8 0.00 0.51 0.51 78 1016.8
20260506041541 15 267 0.0 4.8 0.00 0.51 0.51 78 1016.7
20260506041032 15 236 1.6 4.8 0.00 0.51 0.51 78 1016.7
20260506040534 15 283 1.6 3.2 0.00 0.51 0.51 77 1016.6
20260506040058 15 259 0.0 4.8 0.00 0.51 0.51 77 1016.5
20260506035538 15 0 0.0 4.8 0.00 0.51 0.51 77 1016.5
20260506035036 15 300 1.6 8.0 0.00 0.51 0.51 77 1016.3
20260506034558 15 271 1.6 8.0 0.00 0.51 0.51 77 1016.3
20260506034034 15 295 3.2 8.0 0.00 0.51 0.51 77 1016.2
20260506033534 15 269 1.6 6.4 0.00 0.51 0.51 77 1016.1
20260506033047 15 303 1.6 6.4 0.00 0.51 0.51 76 1016.1
20260506032531 15 319 1.6 6.4 0.00 0.51 0.51 76 1016.0
20260506032033 15 309 3.2 6.4 0.00 0.51 0.51 75 1016.0
20260506031555 15 288 1.6 6.4 0.00 0.51 0.51 75 1016.0
20260506031036 15 306 1.6 6.4 0.00 0.51 0.51 75 1015.9
20260506030532 15 308 1.6 9.7 0.00 0.51 0.51 75 1015.9
20260506030045 15 296 1.6 9.7 0.00 0.51 0.51 75 1015.8
20260506025534 15 259 3.2 9.7 0.00 0.51 0.51 75 1015.8
20260506025035 15 294 1.6 6.4 0.00 0.51 0.51 74 1015.8
20260506024546 15 315 1.6 6.4 0.00 0.51 0.51 74 1015.7
20260506024035 15 267 3.2 9.7 0.00 0.51 0.51 74 1015.6
20260506023535 15 279 3.2 11.3 0.00 0.51 0.51 74 1015.6
20260506023048 15 266 3.2 11.3 0.00 0.51 0.51 73 1015.4
20260506022532 15 296 4.8 11.3 0.00 0.51 0.51 73 1015.4
20260506022034 15 306 3.2 8.0 0.00 0.51 0.51 73 1015.4
20260506021550 15 321 3.2 14.5 0.00 0.51 0.51 73 1015.4
20260506021033 16 270 4.8 14.5 0.00 0.51 0.51 72 1015.4
20260506020536 16 275 4.8 11.3 0.00 0.51 0.51 72 1015.3
20260506020047 16 300 4.8 11.3 0.00 0.51 0.51 72 1015.2
20260506015535 16 298 4.8 11.3 0.00 0.51 0.51 71 1015.2
20260506015032 16 306 4.8 12.9 0.00 0.51 0.51 70 1015.1
20260506014548 16 280 4.8 14.5 0.00 0.51 0.51 69 1015.1
20260506014036 16 257 6.4 14.5 0.00 0.51 0.51 69 1015.0
20260506013534 16 294 6.4 17.7 0.00 0.51 0.51 68 1015.0
20260506013045 17 297 6.4 17.7 0.00 0.51 0.51 68 1015.0
20260506012534 17 282 8.0 17.7 0.00 0.51 0.51 68 1015.0
20260506012035 17 275 6.4 14.5 0.00 0.51 0.51 69 1014.7
20260506011544 17 288 6.4 16.1 0.00 0.51 0.51 67 1014.8
20260506011032 17 274 8.0 16.1 0.00 0.51 0.51 67 1014.9
20260506010531 17 344 8.0 17.7 0.00 0.51 0.51 67 1014.8
20260506010046 17 325 8.0 17.7 0.00 0.51 0.51 67 1014.9
20260506005536 17 266 9.7 19.3 0.00 0.51 0.51 67 1015.0
20260506005031 17 279 9.7 19.3 0.00 0.51 0.51 68 1015.0
20260506004548 17 315 11.3 19.3 0.00 0.51 0.51 67 1014.9
20260506004032 17 302 8.0 19.3 0.00 0.51 0.51 67 1014.9
20260506003535 17 296 9.7 17.7 0.00 0.51 0.51 67 1014.8
20260506003049 18 306 9.7 17.7 0.00 0.51 0.51 66 1015.0
20260506002537 18 215 9.7 17.7 0.00 0.51 0.51 67 1014.9
20260506002034 18 298 8.0 17.7 0.00 0.51 0.51 67 1014.8
20260506001547 18 278 8.0 17.7 0.00 0.51 0.51 67 1014.7
20260506001031 18 272 9.7 19.3 0.00 0.51 0.51 67 1014.6
20260506000534 18 292 11.3 19.3 0.00 0.51 0.51 64 1014.8
20260506000046 18 288 8.0 19.3 0.00 0.51 0.51 67 1014.7
20260505235531 18 319 8.0 20.9 0.00 0.51 0.51 65 1014.7
20260505235034 18 281 9.7 20.9 0.00 0.51 0.51 65 1014.8
20260505234553 18 238 8.0 17.7 0.00 0.51 0.51 65 1014.8
20260505234032 18 250 8.0 20.9 0.00 0.51 0.51 64 1014.8
20260505233533 18 284 11.3 20.9 0.00 0.51 0.51 66 1014.8
20260505233044 18 303 8.0 20.9 0.00 0.51 0.51 67 1014.6
20260505232531 18 250 9.7 17.7 0.00 0.51 0.51 67 1014.7
20260505232032 18 296 11.3 19.3 0.00 0.51 0.51 66 1014.7
20260505231552 18 317 11.3 19.3 0.00 0.51 0.51 67 1014.7
20260505231033 18 281 8.0 17.7 0.00 0.51 0.51 69 1014.8
20260505230534 18 263 9.7 17.7 0.00 0.51 0.51 66 1014.8
20260505230048 18 244 8.0 24.1 0.00 0.51 0.51 66 1014.9
20260505225532 18 267 9.7 24.1 0.00 0.51 0.51 66 1014.9
20260505225031 18 251 8.0 19.3 0.00 0.51 0.51 66 1014.9
20260505224553 18 215 11.3 19.3 0.00 0.51 0.51 66 1014.9
20260505224032 18 272 8.0 19.3 0.00 0.51 0.51 67 1014.9
20260505223532 18 285 9.7 19.3 0.00 0.51 0.51 65 1015.0
20260505223054 18 256 8.0 17.7 0.00 0.51 0.51 65 1015.0
20260505222533 18 202 8.0 20.9 0.00 0.51 0.51 64 1015.1
20260505222036 18 221 11.3 20.9 0.00 0.51 0.51 62 1015.1
20260505221551 18 289 9.7 17.7 0.00 0.51 0.51 64 1015.1
20260505221032 19 261 11.3 16.1 0.00 0.51 0.51 63 1015.0
20260505220531 19 286 8.0 16.1 0.00 0.51 0.51 64 1015.1
20260505220047 18 260 8.0 22.5 0.00 0.51 0.51 64 1015.2
20260505215532 18 208 9.7 22.5 0.00 0.51 0.51 62 1015.2
20260505215032 18 247 11.3 19.3 0.00 0.51 0.51 64 1015.2
20260505214550 18 339 9.7 19.3 0.00 0.51 0.51 65 1015.3
20260505214032 18 331 8.0 19.3 0.00 0.51 0.51 64 1015.3
20260505213531 18 256 6.4 22.5 0.00 0.51 0.51 65 1015.3
20260505213053 18 305 8.0 22.5 0.00 0.51 0.51 65 1015.5
20260505212534 19 267 9.7 19.3 0.00 0.51 0.51 68 1015.5
20260505212032 18 237 9.7 17.7 0.00 0.51 0.51 66 1015.5
20260505211551 18 256 9.7 17.7 0.00 0.51 0.51 66 1015.4
20260505211033 18 304 11.3 17.7 0.00 0.51 0.51 64 1015.4
20260505210532 18 280 8.0 19.3 0.00 0.51 0.51 65 1015.5
20260505210048 18 276 6.4 19.3 0.00 0.51 0.51 66 1015.5
20260505205533 18 157 6.4 17.7 0.00 0.51 0.51 67 1015.6
20260505205033 18 292 8.0 16.1 0.00 0.51 0.51 66 1015.6
20260505204548 18 261 8.0 16.1 0.00 0.51 0.51 67 1015.6
20260505204032 18 302 8.0 19.3 0.00 0.51 0.51 66 1015.6
20260505203532 18 257 8.0 19.3 0.00 0.51 0.51 68 1015.6
20260505203048 18 265 8.0 17.7 0.00 0.51 0.51 67 1015.6
20260505202534 18 310 6.4 17.7 0.00 0.51 0.51 69 1015.6
20260505202035 18 229 11.3 17.7 0.00 0.51 0.51 67 1015.7
20260505201553 18 328 9.7 22.5 0.00 0.51 0.51 68 1015.6
20260505201032 18 256 12.9 22.5 0.00 0.51 0.51 67 1015.6
20260505200532 18 272 9.7 17.7 0.00 0.51 0.51 68 1015.6
20260505200051 18 277 8.0 17.7 0.00 0.51 0.51 69 1015.6
20260505195535 18 238 9.7 19.3 0.00 0.51 0.51 70 1015.6
20260505195031 18 314 8.0 19.3 0.00 0.51 0.51 71 1015.6
20260505194600 18 196 8.0 19.3 0.00 0.51 0.51 71 1015.6
20260505194032 18 246 9.7 17.7 0.00 0.51 0.51 70 1015.6
20260505193532 18 281 8.0 17.7 0.00 0.51 0.51 70 1015.7
20260505193046 18 238 6.4 16.1 0.00 0.51 0.51 71 1015.7
20260505192534 18 263 6.4 16.1 0.00 0.51 0.51 70 1015.7
20260505192032 18 248 6.4 17.7 0.00 0.51 0.51 71 1015.8
20260505191550 18 279 6.4 20.9 0.00 0.51 0.51 70 1015.7
20260505191035 17 317 6.4 20.9 0.00 0.51 0.51 70 1015.7
20260505190534 17 280 6.4 16.1 0.00 0.51 0.51 70 1015.8
20260505190046 17 274 4.8 16.1 0.00 0.51 0.51 71 1015.7
20260505185532 17 315 8.0 19.3 0.00 0.51 0.51 70 1015.7
20260505185032 17 298 9.7 19.3 0.00 0.51 0.51 71 1015.7
20260505184546 17 276 4.8 19.3 0.00 0.51 0.51 71 1015.7
20260505184032 17 279 8.0 17.7 0.00 0.51 0.51 72 1015.8
20260505183531 17 213 6.4 16.1 0.00 0.51 0.51 71 1015.8
20260505183045 17 296 6.4 17.7 0.00 0.51 0.51 71 1015.7
20260505182533 17 234 9.7 20.9 0.00 0.51 0.51 71 1015.7
20260505182031 17 246 8.0 20.9 0.00 0.51 0.51 70 1015.7
20260505181549 17 281 8.0 17.7 0.00 0.51 0.51 70 1015.7
20260505181031 17 295 9.7 17.7 0.00 0.51 0.51 72 1015.7
20260505180531 16 250 6.4 14.5 0.00 0.51 0.51 73 1015.6
20260505180044 16 302 6.4 12.9 0.00 0.51 0.51 74 1015.6
20260505175532 16 264 4.8 14.5 0.00 0.51 0.51 76 1015.5
20260505175032 16 231 8.0 14.5 0.00 0.51 0.51 74 1015.5
20260505174551 16 272 6.4 14.5 0.00 0.51 0.51 75 1015.4
20260505174031 16 275 8.0 14.5 0.00 0.51 0.51 75 1015.4
20260505173530 16 309 6.4 14.5 0.00 0.51 0.51 75 1015.4
20260505173046 16 312 6.4 12.9 0.00 0.51 0.51 75 1015.3
20260505172530 16 261 6.4 16.1 0.00 0.51 0.51 74 1015.3
20260505172030 16 231 6.4 16.1 0.00 0.51 0.51 75 1015.2
20260505171551 16 262 8.0 16.1 0.00 0.51 0.51 76 1015.1
20260505171036 16 253 6.4 17.7 0.00 0.51 0.51 77 1015.1
20260505170530 16 250 8.0 17.7 0.00 0.51 0.51 77 1015.2
20260505170048 16 315 6.4 24.1 0.00 0.51 0.51 77 1015.1
20260505165535 16 284 9.7 24.1 0.00 0.51 0.51 77 1015.0
20260505165035 16 315 8.0 24.1 0.00 0.51 0.51 77 1015.0
20260505164605 16 298 3.2 12.9 0.00 0.51 0.51 77 1014.9
20260505164033 15 277 4.8 12.9 0.00 0.51 0.51 76 1014.9
20260505163531 15 263 4.8 12.9 0.00 0.51 0.51 78 1014.8
20260505163052 15 275 4.8 14.5 0.00 0.51 0.51 80 1014.8
20260505162535 15 250 4.8 14.5 0.00 0.51 0.51 81 1014.8
20260505162036 15 293 4.8 14.5 0.00 0.51 0.51 83 1014.7
20260505161545 15 294 6.4 14.5 0.00 0.51 0.51 84 1014.7
20260505161035 15 320 4.8 12.9 0.00 0.51 0.51 86 1014.6
20260505160536 15 290 4.8 12.9 0.00 0.51 0.51 87 1014.6
20260505153048 13 307 4.8 11.3 0.00 0.51 0.51 92 1014.4
20260505152536 13 345 4.8 11.3 0.00 0.51 0.51 92 1014.4
20260505152036 13 326 1.6 8.0 0.00 0.51 0.51 93 1014.3
20260505151547 13 284 3.2 8.0 0.00 0.51 0.51 93 1014.4
20260505151036 13 318 3.2 8.0 0.00 0.51 0.51 93 1014.3
20260505150536 13 307 3.2 6.4 0.00 0.51 0.51 93 1014.2
20260505140535 13 0 0.0 1.6 0.10 0.51 0.51 93 1013.8
20260505130113 13 0 0.0 1.6 0.03 0.41 0.41 92 1013.3
20260505125035 13 0 0.0 4.8 0.03 0.41 0.41 92 1013.3
20260505124610 13 0 0.0 6.4 0.05 0.41 0.41 92 1013.2
20260505124035 13 0 0.0 6.4 0.08 0.41 0.41 92 1013.2
20260505123535 13 27 0.0 6.4 0.08 0.41 0.41 92 1013.2
20260505123103 13 12 1.6 8.0 0.08 0.41 0.41 92 1013.2
20260505122534 13 0 3.2 12.9 0.13 0.41 0.41 92 1013.1
20260505122036 13 303 4.8 12.9 0.15 0.41 0.41 92 1013.1
20260505121553 13 296 1.6 6.4 0.15 0.41 0.41 92 1013.1
20260505121036 13 281 3.2 9.7 0.15 0.41 0.41 92 1013.0
20260505120535 13 259 3.2 12.9 0.13 0.38 0.38 92 1013.0
20260505120106 13 301 4.8 12.9 0.13 0.38 0.38 92 1013.1
20260505115535 13 306 4.8 14.5 0.13 0.38 0.38 91 1013.1
20260505115039 13 292 6.4 14.5 0.13 0.38 0.38 91 1013.1
20260505114549 13 227 3.2 6.4 0.10 0.36 0.36 91 1013.1
20260505114036 13 0 1.6 4.8 0.08 0.33 0.33 91 1013.1
20260505113540 13 0 0.0 1.6 0.08 0.33 0.33 91 1013.1
20260505113059 13 0 0.0 1.6 0.08 0.33 0.33 91 1013.0
20260505112540 13 0 0.0 0.0 0.03 0.28 0.28 91 1013.0
20260505112035 13 0 0.0 0.0 0.03 0.25 0.25 91 1013.0
20260505111553 13 0 0.0 0.0 0.23 0.25 0.25 91 1013.0
20260505111034 13 0 0.0 0.0 0.23 0.25 0.25 91 1013.1
20260505110535 13 0 0.0 1.6 0.23 0.25 0.25 91 1013.1
20260505110111 13 0 0.0 1.6 0.25 0.25 0.25 90 1013.0
20260505102035 13 273 6.4 12.9 0.23 0.23 0.23 90 1013.3
20260505101553 13 23 0.0 4.8 0.03 0.03 0.03 89 1013.3
20260505101035 13 264 0.0 4.8 0.03 0.03 0.03 89 1013.3
20260505100535 13 298 1.6 6.4 0.03 0.03 0.03 89 1013.3
20260505100045 13 296 0.0 6.4 0.00 0.00 0.00 89 1013.4
20260505095534 13 296 0.0 4.8 0.00 0.00 0.00 89 1013.4
20260505095036 13 288 0.0 3.2 0.00 0.00 0.00 88 1013.4
20260505094556 13 288 0.0 3.2 0.00 0.00 0.00 88 1013.4
20260505094034 13 0 0.0 1.6 0.00 0.00 0.00 88 1013.5
20260505093535 13 0 0.0 4.8 0.00 0.00 0.00 88 1013.5
20260505093052 13 0 0.0 4.8 0.00 0.00 0.00 87 1013.5
20260505092537 13 288 1.6 11.3 0.00 0.00 0.00 87 1013.5
20260505092033 13 295 3.2 11.3 0.00 0.00 0.00 87 1013.6
20260505091552 13 299 4.8 9.7 0.00 0.00 0.00 87 1013.6
20260505091038 13 272 3.2 9.7 0.00 0.00 0.00 86 1013.6
20260505090535 13 278 3.2 11.3 0.00 0.00 0.00 86 1013.6
20260505090046 14 272 3.2 14.5 0.00 0.00 0.00 85 1013.7
20260505085535 14 246 6.4 14.5 0.00 0.00 0.00 85 1013.8
20260505085038 14 287 4.8 12.9 0.00 0.00 0.00 85 1013.8
20260505084553 14 300 1.6 6.4 0.00 0.00 0.00 84 1013.8
20260505084031 14 311 1.6 6.4 0.00 0.00 0.00 84 1013.8
20260505083538 14 306 1.6 6.4 0.00 0.00 0.00 84 1013.8
20260505083057 14 283 1.6 4.8 0.00 0.00 0.00 84 1013.9
20260505082535 14 0 1.6 6.4 0.00 0.00 0.00 83 1013.9
20260505082035 14 306 1.6 6.4 0.00 0.00 0.00 83 1013.9
20260505081554 15 300 3.2 8.0 0.00 0.00 0.00 83 1014.1
20260505081037 15 313 1.6 8.0 0.00 0.00 0.00 83 1014.1
20260505080538 15 313 3.2 11.3 0.00 0.00 0.00 82 1014.1
20260505080104 15 245 3.2 11.3 0.00 0.00 0.00 81 1014.1
20260505075535 15 311 4.8 9.7 0.00 0.00 0.00 81 1014.2
20260505075035 15 298 3.2 11.3 0.00 0.00 0.00 80 1014.2
20260505074549 14 290 4.8 11.3 0.00 0.00 0.00 80 1014.3
20260505074035 15 299 4.8 12.9 0.00 0.00 0.00 80 1014.3
20260505073535 15 309 3.2 12.9 0.00 0.00 0.00 81 1014.2
20260505073050 15 300 6.4 12.9 0.00 0.00 0.00 82 1014.3
20260505072535 15 311 3.2 11.3 0.00 0.00 0.00 84 1014.3
20260505072039 15 261 4.8 11.3 0.00 0.00 0.00 84 1014.4
20260505071552 15 316 4.8 11.3 0.00 0.00 0.00 85 1014.4
20260505071032 15 321 4.8 9.7 0.00 0.00 0.00 85 1014.4
20260505070538 15 275 3.2 9.7 0.00 0.00 0.00 85 1014.4